STARLINK-36720, 67655

Orbit data source: Space-Track

STARLINK-36720, 67655 is a payload satellite owned by SpaceX/Seattle (US) in SSO that was launched on Mon, 02 Feb 2026 UTC via an FALCON 9 launch vehicle from the Air Force Western Test Range (AFWTR). Payload-class satellites include a variety of spacecraft equipped with specific instruments for various scientific and technological missions. These include communications satellites like Starlink; space stations such as the ISS; scientific satellites like the Hubble; Earth observation satellites from companies like Planet Labs, Umbra, and HawkEye 360; GPS; miniature CubeSats for education and research; and military/defense satellites.

Loading next visibility...
Identifier
67655, 2026-022H
Orbit
SSO
Country
Flag of USUS
Related business
Manufacturer
SpaceX/Seattle
Mission
Operational spacecraft
Bus & Motor
STARLINK V2MO, Unknown motor
Mass
575 kg wet, ~530 kg dry
Launch date (UTC)
2026-02-02 (2 months ago)
Launch vehicle
FALCON 9
Launch site
Air Force Western Test Range (AFWTR)
Object type
Payload
Rocket body
Debris
Shape & HBR
Unknown shape, 17.7 m
Radar Cross Section
RCS unknown

Expand to show TLE details & history
Last TLE update: 6 hours ago

TLE from 6 hours ago
0 STARLINK-36720
1 67655U 26022H   26095.56663227  .00052657  00000-0  16219-2 0  9996
2 67655  97.2842 129.5541 0001494 100.9488 259.1923 15.33447795  9691
Epoch: 2026-04-05T13:35Z
TLE epoch observation values (Epoch: 2026-04-05T13:35:57.028Z)
Latitude
0.00001°
Longitude
91.69627°
Altitude
468.839 km
Speed
7.632 km/s
True Right ascension
08h 38m 12s
True Declination
0° 00' 00"
Sunlit
Object was in full shadow at epoch
Visualization orbit readout
Latitude
Unknown
Longitude
Unknown
Altitude
Unknown
Speed
Unknown
Apparent Right ascension
Unknown
Apparent Declination
Unknown
Sunlit
N/A
Visualization observer readout
Local Sidereal Time
01:35:16
Azimuth
Unknown
Elevation
Unknown
Doppler factor
Unknown
Orbital elements
Apogee altitude
463.5 km
Perigee altitude
461.456 km
Semi-major axis
6,840.615 km
Eccentricity
0.00015
Inclination
97.2842°
RAAN
129.5541°
Arg. of periapsis
100.9488°
True anomaly
259.17548°
Mean anomaly
259.1923°
Eccentric anomaly
259.18389°
Mean motion
3.83619 °/min
Orbital period
93.84 mins
BSTAR
0.0016219
Loading maneuver chart data...
Computing Atmospheric mass density...
Loading historical data...
Loading historical data...
Loading historical data...
Loading historical data...
Loading historical data...
Loading historical data...
Loading historical data...

Documentation

Showing up to 5 results
|